Location: Newark
(55.7083°N, 13.1992°E)
Time: 23:42:12
(UTC+00:00)

N. Korean satellite - Pass Details

Date: 24 January 2020
Orbit: 456 x 505 km, 97.2° (Epoch: 19 February)

Event Time Altitude Azimuth Distance (km) Brightness Sun altitude
Rises 04:31:41 0° 20° (NNE) 2,527 10.4 -22.5°
Reaches altitude 10° 04:33:52 10° 31° (NNE) 1,652 9.6 -22.2°
Maximum altitude 04:37:07 33° 96° (E) 836 8.4 -21.7°
Drops below altitude 10° 04:40:23 10° 162° (SSE) 1,665 9.5 -21.3°
Sets 04:42:36 0° 172° (S) 2,549 10.4 -21.0°
